logo
Search for airport 
image banner adimage banner adimage banner ad
image banner ad

OITL - Ardabil / Secondary International Aerodrome

Located in Ardabil, Iran, Islamic Republic of

ICAO - OITL, IATA - ADU

Data provided by Airmate  

General information

Coordinates: N38°19'36" E48°25'27"
Elevation is 4319 feet MSL.
 
Rated:
View ratings:
[VIEW]
View others Airports in Ardabil Province

Operational data

Special qualification required
Current time UTC:
Current local time:
Weather
METAR: OITL 171630Z 06010KT 9999 VCFG FEW040 21/17 Q1019
TAF: TAF OITL 171400Z 1715/1724 09010KT 7000 SCT035 BKN100 BECMG 1716/1718 24006KT
View NOTAMs / SUP AIP / TFR affecting this airport [VIEW]
Communications frequencies: [VIEW]

Runways:

RWY identifierQFULength (ft)Width (ft)SurfaceLDA (ft)
0775°8202148UNK
25255°8202148UNK
15150°10820148PEM
33330°10820148PEM

Airport contact information

Address: Ardabil Iran, Islamic Republic of

Satellite view of OITL